カタログに戻る

TELSTAR 2

A-41

運用中通信HEO
NORAD 573·PAYLOAD·🇺🇸 United States

打ち上げ May 7, 1963 から Cape Canaveral Space Force Station

Loading…

次のパス (今後24時間)

TLE

最新Source: Space-Track

元期: Sep 14, 2026, 09:47 UTC

1 00573U 63013A   26257.40792529  .00000006  00000-0  19113-3 0  9992
2 00573  42.7627 250.4244 4014225 259.5189 311.5757  6.39279932591850

AllMySatでTELSTAR 2をリアルタイム追跡

Download on the App Store